Flag Weather past 2 weeks in Nouadhibou, Mauritania

Now
73 °F

Passing clouds.


Feels Like: 73 °F
Forecast: N/A
Wind: 14 mph from Northwest

Location: Nouadhibou Airport

Current Time: Oct 30, 2014 at 6:22:25 PM

Latest Report: Oct 30, 2014 at 6:00 PM


Visibility: 5 mi

Pressure: 29.92 "Hg

Humidity: 83%

Dew point: 68 °F

Location of NouadhibouLocation

Historic Weather in Nouadhibou — Graph

°F

Nouadhibou temperature yesterday

Maximum temperature yesterday: 77 °F (at 12:00 PM)
Minimum temperature yesterday: 68 °F (at 4:00 AM)
Average temperature yesterday: 72 °F

Past Weeks' High & Low Weather Summary

 TemperatureHumidityPressure
High99 °F (Oct 23, 2:00 PM)100% (Oct 20, 6:00 AM)30.01 "Hg (Oct 20, 6:00 AM)
Low66 °F (Oct 19, 2:00 AM)11% (Oct 26, 1:00 PM)29.83 "Hg (Oct 29, 3:00 PM)
Average75 °F69%29.91 "Hg
* Reported Oct 15 5:00 PM — Oct 30 5:00 PM, Nouadhibou, Weather by CustomWeather, © 2014

Note: Actual official high and low records may vary slightly from our data, if they occured in-between our weather recording intervals... More about our weather records

Advertising

Nouadhibou weather history for previous 24 hours

 ConditionsComfort  
Time TempWeatherWind HumidityBarometerVisibility
5:00 PM
Oct 30
75 °FPassing clouds.14 mph74%29.92 "Hg5 mi
4:00 PM75 °FPassing clouds.14 mph74%29.89 "Hg5 mi
3:00 PM77 °FPassing clouds.14 mph69%29.89 "Hg5 mi
2:00 PM77 °FPassing clouds.14 mph74%29.92 "Hg5 mi
1:00 PM77 °FPassing clouds.12 mph74%29.92 "Hg5 mi
12:00 PM77 °FScattered clouds.9 mph74%29.92 "Hg5 mi
11:00 AM73 °FScattered clouds.12 mph83%29.95 "Hg5 mi
10:00 AM72 °FScattered clouds.9 mph88%29.95 "Hg5 mi
9:00 AM70 °FFog.7 mph94%29.92 "Hg2 mi
8:00 AM68 °FFog.5 mph94%29.92 "Hg2 mi
7:00 AM68 °FFog.5 mph94%29.92 "Hg2 mi
6:00 AM68 °FFog.5 mph94%29.89 "Hg0 mi
5:00 AM68 °FFog.5 mph94%29.89 "Hg1 mi
4:00 AM68 °FPassing clouds.5 mph94%29.89 "Hg5 mi
3:00 AM68 °FFog.3 mph94%29.86 "Hg1 mi
2:00 AM68 °FClear.5 mph94%29.89 "Hg5 mi
1:00 AM70 °FClear.5 mph88%29.89 "Hg5 mi
12:00 AM70 °FClear.5 mph88%29.89 "Hg5 mi
11:00 PM
Oct 29
70 °FClear.7 mph94%29.89 "Hg5 mi
10:00 PM70 °FClear.7 mph94%29.89 "Hg5 mi
9:00 PM70 °FClear.6 mph94%29.89 "Hg5 mi
8:00 PM72 °FClear.7 mph88%29.86 "Hg5 mi
7:00 PM72 °FPassing clouds.9 mph88%29.83 "HgN/A
6:00 PM73 °FPassing clouds.14 mph83%29.83 "HgN/A
Weather by CustomWeather, © 2014

See weather overviewHow to use our weather pages